Onweer radar more information blitzortung!


Regen radar more information rain snow radar


Meteo Sauwerd

Weerstation Alkmaar Centrum

Weerstation Luyksgestel

Website Noardburgum

Weerstation Noordbergum



Het weer levert geen direct gevaar op.    Er zijn geen waarschuwingen afgegeven.

Select another period ( hide this area )

Eenheden Periode Custom range Directly to
Metrisch Engels Beide
Dagelijkse Wekelijkse Maandelijkse Jaarlijkse
use both date-selectors for a custom range
previous Dag
With this date

WeatherUnderground graphs for this period ( click here )


Dagelijkse Samenvatting Donderdag 18 april 2019
Tijd Temp. ( °C ) Dew pt. ( °C ) Wind ( km/h ) van Windvlaag ( km/h ) Luchtdruk ( hPa ) Humid.( % ) Rainrate ( cm ) Zonneschijn ( W/m2 )
Hoog20,3 8,6 27,4 ONO ( 540/1520 ) 33,8 1028,0 82 - 719
Gemiddeld11,7 5,3 8,8 ONO #64/173 16,9 1026,8 66 - 365 #97/173
Laag6,8 3,3 3,2   6,4 1025,6 42 -  
Dagelijkse Tabular details for Donderdag 18 april 2019
Tijd Temp. ( °C ) Dew pt. ( °C ) Wind ( km/h ) van Windvlaag ( km/h ) Luchtdruk ( hPa ) Humid.( % ) Rainrate ( cm ) Zonneschijn ( W/m2 )
00:04 12,1 4,3 7,9 ONO 12,9 1025,6 59 - -
00:09 12,0 4,2 6,4 ONO 9,7 1025,6 59 - -
00:14 12,0 4,2 6,4 ONO 12,9 1025,6 59 - -
00:19 11,9 4,1 6,4 ONO 8,0 1025,6 59 - -
00:24 11,9 4,1 4,7 ONO 8,0 1025,6 59 - -
00:29 11,9 4,4 4,7 Oosten 11,3 1025,6 60 - -
00:34 11,8 4,0 4,7 ONO 12,9 1025,6 59 - -
00:39 11,8 4,0 3,2 Oosten 12,9 1025,6 59 - -
00:44 11,7 4,0 9,7 ONO 14,5 1025,6 59 - -
00:49 11,6 3,9 6,4 ONO 11,3 1025,6 59 - -
00:54 11,6 3,9 3,2 ONO 11,3 1025,6 59 - -
00:59 11,6 3,9 3,2 Oosten 9,7 1025,6 59 - -
01:04 11,4 3,7 7,9 Oosten 8,0 1025,6 59 - -
01:09 11,4 3,9 4,7 Oosten 11,3 1025,6 60 - -
01:14 11,4 3,7 6,4 ONO 9,7 1025,6 59 - -
01:19 11,4 3,7 6,4 NO 16,1 1026,0 59 - -
01:24 11,3 3,6 9,7 Oosten 12,9 1026,0 59 - -
01:29 11,3 3,6 4,7 ONO 14,5 1026,0 59 - -
01:34 11,2 3,5 4,7 ONO 14,5 1026,0 59 - -
01:39 11,2 3,5 6,4 ONO 16,1 1026,0 59 - -
01:44 11,1 3,4 6,4 ONO 16,1 1026,0 59 - -
01:49 11,1 3,4 9,7 ONO 14,5 1026,0 59 - -
01:54 11,0 3,3 11,1 NO 14,5 1026,0 59 - -
01:59 10,9 3,4 7,9 ONO 12,9 1026,0 60 - -
02:04 10,7 3,5 4,7 Oosten 8,0 1026,0 61 - -
02:09 10,6 3,4 4,7 Oosten 6,4 1026,0 61 - -
02:14 10,4 3,4 6,4 NO 11,3 1026,0 62 - -
02:19 10,3 3,3 3,2 ONO 9,7 1026,0 62 - -
02:24 10,2 3,5 7,9 ONO 9,7 1026,0 63 - -
02:29 10,1 3,4 11,1 ONO 12,9 1025,6 63 - -
02:34 9,9 3,4 9,7 NO 14,5 1026,0 64 - -
02:39 9,8 3,5 6,4 ONO 14,5 1026,0 65 - -
02:44 9,6 3,3 4,7 ONO 8,0 1026,0 65 - -
02:49 9,5 3,5 4,7 ONO 12,9 1026,0 66 - -
02:54 9,4 3,4 3,2 ONO 11,3 1026,0 66 - -
02:59 9,3 3,5 6,4 Oosten 9,7 1026,0 67 - -
03:04 9,2 3,6 3,2 ONO 12,9 1026,0 68 - -
03:09 9,1 3,5 4,7 NO 11,3 1026,0 68 - -
03:14 9,0 3,6 4,7 ONO 12,9 1026,0 69 - -
03:19 8,9 3,5 3,2 ONO 11,3 1026,0 69 - -
03:24 8,8 3,6 4,7 NO 12,9 1026,0 70 - -
03:29 8,7 3,5 7,9 ONO 12,9 1026,0 70 - -
03:34 8,7 3,7 4,7 Oosten 11,3 1026,0 71 - -
03:39 8,6 3,6 4,7 ONO 12,9 1026,0 71 - -
03:44 8,4 3,6 3,2 Oosten 11,3 1026,0 72 - -
03:49 8,4 3,6 6,4 ONO 12,9 1026,0 72 - -
03:54 8,3 3,7 4,7 OZO 11,3 1026,0 73 - -
03:59 8,2 3,6 3,2 NO 12,9 1026,0 73 - -
04:04 8,1 3,7 4,7 ONO 9,7 1026,0 74 - -
04:09 8,0 3,6 7,9 ONO 12,9 1026,0 74 - -
04:14 7,9 3,7 9,7 OZO 14,5 1026,0 75 - -
04:19 7,9 3,9 4,7 ONO 16,1 1026,0 76 - -
04:24 7,8 3,8 11,1 NO 14,5 1026,3 76 - -
04:29 7,8 4,0 4,7 ONO 12,9 1026,3 77 - -
04:34 7,7 3,9 4,7 OZO 12,9 1026,3 77 - -
04:39 7,7 3,9 7,9 ONO 11,3 1026,3 77 - -
04:44 7,6 4,0 4,7 OZO 12,9 1026,3 78 - -
04:49 7,6 4,0 13,0 Oosten 14,5 1026,6 78 - -
04:54 7,6 4,2 14,3 Oosten 16,1 1026,3 79 - -
04:59 7,5 4,1 7,9 Oosten 12,9 1026,3 79 - -
05:04 7,4 4,0 4,7 ONO 12,9 1026,3 79 - -
05:09 7,4 4,0 4,7 Oosten 14,5 1026,3 79 - -
05:14 7,3 4,1 4,7 Oosten 14,5 1026,3 80 - -
05:19 7,3 4,1 6,4 NO 12,9 1026,3 80 - -
05:24 7,3 4,1 13,0 Oosten 16,1 1026,3 80 - -
05:29 7,3 4,1 14,3 ONO 14,5 1026,3 80 - -
05:34 7,3 4,3 11,1 Oosten 17,7 1026,3 81 - -
05:39 7,3 4,3 6,4 Oosten 17,7 1026,3 81 - -
05:44 7,2 4,2 6,4 Oosten 16,1 1026,3 81 - -
05:49 7,2 4,2 4,7 OZO 17,7 1026,3 81 - -
05:54 7,2 4,2 14,3 OZO 14,5 1026,3 81 - -
05:59 7,2 4,2 3,2 ONO 14,5 1026,3 81 - -
06:04 7,2 4,2 9,7 Oosten 12,9 1026,3 81 - -
06:09 7,2 4,2 9,7 ONO 16,1 1026,6 81 - -
06:14 7,2 4,2 3,2 Oosten 14,5 1026,3 81 - -
06:19 7,1 4,1 4,7 NO 12,9 1026,6 81 - -
06:24 7,1 4,1 6,4 Oosten 17,7 1026,6 81 - 5
06:29 7,0 4,0 11,1 Oosten 12,9 1026,6 81 - 5
06:34 6,9 3,9 4,7 OZO 14,5 1026,6 81 - 7
06:39 6,9 3,9 4,7 Oosten 11,3 1026,6 81 - 9
06:44 6,9 4,0 4,7 OZO 12,9 1026,6 82 - 12
06:49 6,9 4,0 4,7 Oosten 11,3 1026,6 82 - 14
06:54 6,8 3,9 4,7 OZO 11,3 1026,6 82 - 18
06:59 6,8 3,9 9,7 Oosten 16,1 1026,6 82 - 19
07:04 6,9 4,0 11,1 Oosten 14,5 1026,6 82 - 23
07:09 6,9 4,0 3,2 Oosten 16,1 1026,6 82 - 26
07:14 6,9 4,0 9,7 Oosten 12,9 1027,0 82 - 30
07:19 7,0 4,1 6,4 ONO 14,5 1027,0 82 - 28
07:24 7,1 4,2 9,7 Oosten 16,1 1027,0 82 - 30
07:29 7,1 4,1 4,7 Oosten 17,7 1027,0 81 - 33
07:34 7,2 4,2 4,7 ONO 16,1 1027,0 81 - 35
07:39 7,2 4,2 9,7 Oosten 17,7 1027,0 81 - 39
07:44 7,3 4,3 9,7 ONO 16,1 1027,0 81 - 42
07:49 7,6 4,4 7,9 ONO 12,9 1027,0 80 - 46
07:54 7,7 4,5 11,1 ONO 17,7 1027,0 80 - 49
07:59 7,9 4,7 4,7 Oosten 19,3 1027,0 80 - 51
08:04 8,2 4,8 13,0 ONO 19,3 1027,3 79 - 53
08:09 8,4 5,0 6,4 OZO 16,1 1027,3 79 - 54
08:14 8,6 5,0 4,7 OZO 19,3 1027,3 78 - 56
08:19 8,8 5,2 6,4 ONO 16,1 1027,3 78 - 60
08:24 8,9 5,1 7,9 OZO 17,7 1027,3 77 - 63
08:29 9,2 5,4 3,2 OZO 16,1 1027,3 77 - 63
08:34 9,4 5,4 11,1 Oosten 19,3 1027,3 76 - 62
08:39 9,6 5,4 6,4 Oosten 11,3 1027,3 75 - 63
08:44 9,7 5,7 11,1 Oosten 17,7 1027,3 76 - 70
08:49 9,8 5,6 11,1 OZO 19,3 1027,3 75 - 72
08:54 10,1 5,9 6,4 Oosten 17,7 1027,3 75 - 74
08:59 10,2 6,0 13,0 ONO 16,1 1027,7 75 - 81
09:04 10,4 6,0 13,0 OZO 17,7 1027,7 74 - 262
09:09 10,6 6,2 13,0 ONO 17,7 1027,7 74 - 230
09:14 10,8 6,2 6,4 Oosten 19,3 1027,7 73 - 272
09:19 11,0 6,1 4,7 OZO 20,9 1027,7 72 - 206
09:24 11,2 6,1 11,1 OZO 22,5 1027,7 71 - 232
09:29 11,3 6,2 6,4 ONO 16,1 1027,7 71 - 234
09:34 11,6 6,3 4,7 Oosten 14,5 1027,7 70 - 290
09:39 11,8 6,5 11,1 OZO 17,7 1028,0 70 - 239
09:44 12,0 6,5 4,7 ZO 19,3 1027,7 69 - 297
09:49 12,2 6,7 4,7 Oosten 16,1 1028,0 69 - 341
09:54 12,4 6,9 16,3 ONO 17,7 1028,0 69 - 262
09:59 12,7 6,7 13,0 Oosten 24,1 1028,0 67 - 392
10:04 12,9 6,9 4,7 OZO 14,5 1028,0 67 - 410
10:09 13,2 7,2 11,1 Oosten 20,9 1028,0 67 - 438
10:14 13,4 7,2 6,4 OZO 20,9 1028,0 66 - 464
10:19 13,7 7,2 7,9 ONO 16,1 1028,0 65 - 478
10:24 13,9 7,2 14,3 ZO 22,5 1028,0 64 - 506
10:29 14,2 7,5 6,4 NO 12,9 1028,0 64 - 508
10:34 14,4 7,7 14,3 ONO 20,9 1028,0 64 - 461
10:39 14,5 7,8 13,0 OZO 20,9 1028,0 64 - 487
10:44 14,7 7,7 13,0 Oosten 19,3 1028,0 63 - 466
10:49 14,8 7,8 4,7 ONO 22,5 1028,0 63 - 529
10:54 14,9 7,9 16,3 ONO 16,1 1028,0 63 - 555
10:59 15,3 7,8 9,7 ONO 19,3 1028,0 61 - 587
11:04 15,6 8,1 14,3 ONO 17,7 1028,0 61 - 554
11:09 15,8 8,0 20,9 Oosten 22,5 1028,0 60 - 605
11:14 16,0 8,0 16,3 Oosten 25,7 1028,0 59 - 489
11:19 16,1 8,1 11,1 Oosten 20,9 1028,0 59 - 461
11:24 16,2 7,9 9,7 ONO 22,5 1028,0 58 - 464
11:29 16,3 7,8 17,7 ONO 24,1 1028,0 57 - 461
11:34 16,4 8,1 7,9 Oosten 11,3 1028,0 58 - 490
11:39 16,6 7,8 20,9 Oosten 27,4 1028,0 56 - 559
11:44 16,8 8,0 14,3 ONO 20,9 1028,0 56 - 617
11:49 17,0 8,2 13,0 ONO 19,3 1028,0 56 - 631
11:54 17,2 8,6 14,3 Oosten 20,9 1028,0 57 - 626
11:59 17,5 8,6 16,3 NNO 25,7 1028,0 56 - 643
12:04 17,6 7,6 13,0 OZO 25,7 1028,0 52 - 619
12:09 17,8 8,4 6,4 NO 25,7 1028,0 54 - 650
12:14 18,1 8,1 9,7 OZO 17,7 1028,0 52 - 647
12:19 18,2 8,2 20,9 ONO 25,7 1028,0 52 - 568
12:24 18,2 7,9 4,7 NO 25,7 1027,7 51 - 552
12:29 18,3 7,7 14,3 OZO 22,5 1027,7 50 - 580
12:34 18,4 8,4 17,7 OZO 19,3 1027,7 52 - 594
12:39 18,6 8,3 7,9 OZO 25,7 1027,7 51 - 612
12:44 18,7 7,2 14,3 Oosten 30,6 1027,7 47 - 596
12:49 18,7 7,5 14,3 OZO 25,7 1027,7 48 - 585
12:54 18,8 7,2 6,4 NO 29,0 1027,7 47 - 563
12:59 19,1 7,2 19,5 OZO 27,4 1027,7 46 - 578
13:04 19,2 7,3 27,4 Oosten 27,4 1027,7 46 - 619
13:09 19,3 7,1 4,7 OZO 32,2 1027,7 45 - 626
13:14 19,4 7,5 4,7 OZO 12,9 1027,3 46 - 673
13:19 19,7 7,4 9,7 ONO 24,1 1027,3 45 - 640
13:24 19,7 7,1 9,7 OZO 20,9 1027,3 44 - 622
13:29 19,8 7,2 6,4 Oosten 30,6 1027,3 44 - 613
13:34 19,8 7,2 16,3 OZO 24,1 1027,3 44 - 598
13:39 19,8 7,8 14,3 ONO 20,9 1027,3 46 - 619
13:44 19,8 8,2 17,7 Oosten 29,0 1027,3 47 - 624
13:49 19,9 7,9 13,0 ZO 25,7 1027,3 46 - 663
13:54 19,9 7,3 14,3 ONO 33,8 1027,3 44 - 719
13:59 19,9 7,6 20,9 Oosten 30,6 1027,3 45 - 719
14:04 20,1 7,5 6,4 ZO 24,1 1027,3 44 - 714
14:09 20,2 7,6 7,9 NNO 25,7 1027,0 44 - 705
14:14 20,2 6,9 20,9 Oosten 24,1 1027,3 42 - 696
14:19 20,2 7,6 11,1 OZO 20,9 1027,0 44 - 701
14:24 20,3 7,3 16,3 ONO 20,9 1027,0 43 - 689
Dagelijkse Samenvatting Donderdag 18 april 2019
Tijd Temp. ( °C ) Dew pt. ( °C ) Wind ( km/h ) van Windvlaag ( km/h ) Luchtdruk ( hPa ) Humid.( % ) Rainrate ( cm ) Zonneschijn ( W/m2 )
Hoog20,3 8,6 27,4 ONO ( 540/1520 ) 33,8 1028,0 82 - 719
Gemiddeld11,7 5,3 8,8 ONO #64/173 16,9 1026,8 66 - 365 #97/173
Laag6,8 3,3 3,2   6,4 1025,6 42 -  
Dagelijkse Tabular details for Donderdag 18 april 2019
Tijd Temp. ( °C ) Dew pt. ( °C ) Wind ( km/h ) van Windvlaag ( km/h ) Luchtdruk ( hPa ) Humid.( % ) Rainrate ( cm ) Zonneschijn ( W/m2 )
00:04 12,1 4,3 7,9 ONO 12,9 1025,6 59 - -
00:09 12,0 4,2 6,4 ONO 9,7 1025,6 59 - -
00:14 12,0 4,2 6,4 ONO 12,9 1025,6 59 - -
00:19 11,9 4,1 6,4 ONO 8,0 1025,6 59 - -
00:24 11,9 4,1 4,7 ONO 8,0 1025,6 59 - -
00:29 11,9 4,4 4,7 Oosten 11,3 1025,6 60 - -
00:34 11,8 4,0 4,7 ONO 12,9 1025,6 59 - -
00:39 11,8 4,0 3,2 Oosten 12,9 1025,6 59 - -
00:44 11,7 4,0 9,7 ONO 14,5 1025,6 59 - -
00:49 11,6 3,9 6,4 ONO 11,3 1025,6 59 - -
00:54 11,6 3,9 3,2 ONO 11,3 1025,6 59 - -
00:59 11,6 3,9 3,2 Oosten 9,7 1025,6 59 - -
01:04 11,4 3,7 7,9 Oosten 8,0 1025,6 59 - -
01:09 11,4 3,9 4,7 Oosten 11,3 1025,6 60 - -
01:14 11,4 3,7 6,4 ONO 9,7 1025,6 59 - -
01:19 11,4 3,7 6,4 NO 16,1 1026,0 59 - -
01:24 11,3 3,6 9,7 Oosten 12,9 1026,0 59 - -
01:29 11,3 3,6 4,7 ONO 14,5 1026,0 59 - -
01:34 11,2 3,5 4,7 ONO 14,5 1026,0 59 - -
01:39 11,2 3,5 6,4 ONO 16,1 1026,0 59 - -
01:44 11,1 3,4 6,4 ONO 16,1 1026,0 59 - -
01:49 11,1 3,4 9,7 ONO 14,5 1026,0 59 - -
01:54 11,0 3,3 11,1 NO 14,5 1026,0 59 - -
01:59 10,9 3,4 7,9 ONO 12,9 1026,0 60 - -
02:04 10,7 3,5 4,7 Oosten 8,0 1026,0 61 - -
02:09 10,6 3,4 4,7 Oosten 6,4 1026,0 61 - -
02:14 10,4 3,4 6,4 NO 11,3 1026,0 62 - -
02:19 10,3 3,3 3,2 ONO 9,7 1026,0 62 - -
02:24 10,2 3,5 7,9 ONO 9,7 1026,0 63 - -
02:29 10,1 3,4 11,1 ONO 12,9 1025,6 63 - -
02:34 9,9 3,4 9,7 NO 14,5 1026,0 64 - -
02:39 9,8 3,5 6,4 ONO 14,5 1026,0 65 - -
02:44 9,6 3,3 4,7 ONO 8,0 1026,0 65 - -
02:49 9,5 3,5 4,7 ONO 12,9 1026,0 66 - -
02:54 9,4 3,4 3,2 ONO 11,3 1026,0 66 - -
02:59 9,3 3,5 6,4 Oosten 9,7 1026,0 67 - -
03:04 9,2 3,6 3,2 ONO 12,9 1026,0 68 - -
03:09 9,1 3,5 4,7 NO 11,3 1026,0 68 - -
03:14 9,0 3,6 4,7 ONO 12,9 1026,0 69 - -
03:19 8,9 3,5 3,2 ONO 11,3 1026,0 69 - -
03:24 8,8 3,6 4,7 NO 12,9 1026,0 70 - -
03:29 8,7 3,5 7,9 ONO 12,9 1026,0 70 - -
03:34 8,7 3,7 4,7 Oosten 11,3 1026,0 71 - -
03:39 8,6 3,6 4,7 ONO 12,9 1026,0 71 - -
03:44 8,4 3,6 3,2 Oosten 11,3 1026,0 72 - -
03:49 8,4 3,6 6,4 ONO 12,9 1026,0 72 - -
03:54 8,3 3,7 4,7 OZO 11,3 1026,0 73 - -
03:59 8,2 3,6 3,2 NO 12,9 1026,0 73 - -
04:04 8,1 3,7 4,7 ONO 9,7 1026,0 74 - -
04:09 8,0 3,6 7,9 ONO 12,9 1026,0 74 - -
04:14 7,9 3,7 9,7 OZO 14,5 1026,0 75 - -
04:19 7,9 3,9 4,7 ONO 16,1 1026,0 76 - -
04:24 7,8 3,8 11,1 NO 14,5 1026,3 76 - -
04:29 7,8 4,0 4,7 ONO 12,9 1026,3 77 - -
04:34 7,7 3,9 4,7 OZO 12,9 1026,3 77 - -
04:39 7,7 3,9 7,9 ONO 11,3 1026,3 77 - -
04:44 7,6 4,0 4,7 OZO 12,9 1026,3 78 - -
04:49 7,6 4,0 13,0 Oosten 14,5 1026,6 78 - -
04:54 7,6 4,2 14,3 Oosten 16,1 1026,3 79 - -
04:59 7,5 4,1 7,9 Oosten 12,9 1026,3 79 - -
05:04 7,4 4,0 4,7 ONO 12,9 1026,3 79 - -
05:09 7,4 4,0 4,7 Oosten 14,5 1026,3 79 - -
05:14 7,3 4,1 4,7 Oosten 14,5 1026,3 80 - -
05:19 7,3 4,1 6,4 NO 12,9 1026,3 80 - -
05:24 7,3 4,1 13,0 Oosten 16,1 1026,3 80 - -
05:29 7,3 4,1 14,3 ONO 14,5 1026,3 80 - -
05:34 7,3 4,3 11,1 Oosten 17,7 1026,3 81 - -
05:39 7,3 4,3 6,4 Oosten 17,7 1026,3 81 - -
05:44 7,2 4,2 6,4 Oosten 16,1 1026,3 81 - -
05:49 7,2 4,2 4,7 OZO 17,7 1026,3 81 - -
05:54 7,2 4,2 14,3 OZO 14,5 1026,3 81 - -
05:59 7,2 4,2 3,2 ONO 14,5 1026,3 81 - -
06:04 7,2 4,2 9,7 Oosten 12,9 1026,3 81 - -
06:09 7,2 4,2 9,7 ONO 16,1 1026,6 81 - -
06:14 7,2 4,2 3,2 Oosten 14,5 1026,3 81 - -
06:19 7,1 4,1 4,7 NO 12,9 1026,6 81 - -
06:24 7,1 4,1 6,4 Oosten 17,7 1026,6 81 - 5
06:29 7,0 4,0 11,1 Oosten 12,9 1026,6 81 - 5
06:34 6,9 3,9 4,7 OZO 14,5 1026,6 81 - 7
06:39 6,9 3,9 4,7 Oosten 11,3 1026,6 81 - 9
06:44 6,9 4,0 4,7 OZO 12,9 1026,6 82 - 12
06:49 6,9 4,0 4,7 Oosten 11,3 1026,6 82 - 14
06:54 6,8 3,9 4,7 OZO 11,3 1026,6 82 - 18
06:59 6,8 3,9 9,7 Oosten 16,1 1026,6 82 - 19
07:04 6,9 4,0 11,1 Oosten 14,5 1026,6 82 - 23
07:09 6,9 4,0 3,2 Oosten 16,1 1026,6 82 - 26
07:14 6,9 4,0 9,7 Oosten 12,9 1027,0 82 - 30
07:19 7,0 4,1 6,4 ONO 14,5 1027,0 82 - 28
07:24 7,1 4,2 9,7 Oosten 16,1 1027,0 82 - 30
07:29 7,1 4,1 4,7 Oosten 17,7 1027,0 81 - 33
07:34 7,2 4,2 4,7 ONO 16,1 1027,0 81 - 35
07:39 7,2 4,2 9,7 Oosten 17,7 1027,0 81 - 39
07:44 7,3 4,3 9,7 ONO 16,1 1027,0 81 - 42
07:49 7,6 4,4 7,9 ONO 12,9 1027,0 80 - 46
07:54 7,7 4,5 11,1 ONO 17,7 1027,0 80 - 49
07:59 7,9 4,7 4,7 Oosten 19,3 1027,0 80 - 51
08:04 8,2 4,8 13,0 ONO 19,3 1027,3 79 - 53
08:09 8,4 5,0 6,4 OZO 16,1 1027,3 79 - 54
08:14 8,6 5,0 4,7 OZO 19,3 1027,3 78 - 56
08:19 8,8 5,2 6,4 ONO 16,1 1027,3 78 - 60
08:24 8,9 5,1 7,9 OZO 17,7 1027,3 77 - 63
08:29 9,2 5,4 3,2 OZO 16,1 1027,3 77 - 63
08:34 9,4 5,4 11,1 Oosten 19,3 1027,3 76 - 62
08:39 9,6 5,4 6,4 Oosten 11,3 1027,3 75 - 63
08:44 9,7 5,7 11,1 Oosten 17,7 1027,3 76 - 70
08:49 9,8 5,6 11,1 OZO 19,3 1027,3 75 - 72
08:54 10,1 5,9 6,4 Oosten 17,7 1027,3 75 - 74
08:59 10,2 6,0 13,0 ONO 16,1 1027,7 75 - 81
09:04 10,4 6,0 13,0 OZO 17,7 1027,7 74 - 262
09:09 10,6 6,2 13,0 ONO 17,7 1027,7 74 - 230
09:14 10,8 6,2 6,4 Oosten 19,3 1027,7 73 - 272
09:19 11,0 6,1 4,7 OZO 20,9 1027,7 72 - 206
09:24 11,2 6,1 11,1 OZO 22,5 1027,7 71 - 232
09:29 11,3 6,2 6,4 ONO 16,1 1027,7 71 - 234
09:34 11,6 6,3 4,7 Oosten 14,5 1027,7 70 - 290
09:39 11,8 6,5 11,1 OZO 17,7 1028,0 70 - 239
09:44 12,0 6,5 4,7 ZO 19,3 1027,7 69 - 297
09:49 12,2 6,7 4,7 Oosten 16,1 1028,0 69 - 341
09:54 12,4 6,9 16,3 ONO 17,7 1028,0 69 - 262
09:59 12,7 6,7 13,0 Oosten 24,1 1028,0 67 - 392
10:04 12,9 6,9 4,7 OZO 14,5 1028,0 67 - 410
10:09 13,2 7,2 11,1 Oosten 20,9 1028,0 67 - 438
10:14 13,4 7,2 6,4 OZO 20,9 1028,0 66 - 464
10:19 13,7 7,2 7,9 ONO 16,1 1028,0 65 - 478
10:24 13,9 7,2 14,3 ZO 22,5 1028,0 64 - 506
10:29 14,2 7,5 6,4 NO 12,9 1028,0 64 - 508
10:34 14,4 7,7 14,3 ONO 20,9 1028,0 64 - 461
10:39 14,5 7,8 13,0 OZO 20,9 1028,0 64 - 487
10:44 14,7 7,7 13,0 Oosten 19,3 1028,0 63 - 466
10:49 14,8 7,8 4,7 ONO 22,5 1028,0 63 - 529
10:54 14,9 7,9 16,3 ONO 16,1 1028,0 63 - 555
10:59 15,3 7,8 9,7 ONO 19,3 1028,0 61 - 587
11:04 15,6 8,1 14,3 ONO 17,7 1028,0 61 - 554
11:09 15,8 8,0 20,9 Oosten 22,5 1028,0 60 - 605
11:14 16,0 8,0 16,3 Oosten 25,7 1028,0 59 - 489
11:19 16,1 8,1 11,1 Oosten 20,9 1028,0 59 - 461
11:24 16,2 7,9 9,7 ONO 22,5 1028,0 58 - 464
11:29 16,3 7,8 17,7 ONO 24,1 1028,0 57 - 461
11:34 16,4 8,1 7,9 Oosten 11,3 1028,0 58 - 490
11:39 16,6 7,8 20,9 Oosten 27,4 1028,0 56 - 559
11:44 16,8 8,0 14,3 ONO 20,9 1028,0 56 - 617
11:49 17,0 8,2 13,0 ONO 19,3 1028,0 56 - 631
11:54 17,2 8,6 14,3 Oosten 20,9 1028,0 57 - 626
11:59 17,5 8,6 16,3 NNO 25,7 1028,0 56 - 643
12:04 17,6 7,6 13,0 OZO 25,7 1028,0 52 - 619
12:09 17,8 8,4 6,4 NO 25,7 1028,0 54 - 650
12:14 18,1 8,1 9,7 OZO 17,7 1028,0 52 - 647
12:19 18,2 8,2 20,9 ONO 25,7 1028,0 52 - 568
12:24 18,2 7,9 4,7 NO 25,7 1027,7 51 - 552
12:29 18,3 7,7 14,3 OZO 22,5 1027,7 50 - 580
12:34 18,4 8,4 17,7 OZO 19,3 1027,7 52 - 594
12:39 18,6 8,3 7,9 OZO 25,7 1027,7 51 - 612
12:44 18,7 7,2 14,3 Oosten 30,6 1027,7 47 - 596
12:49 18,7 7,5 14,3 OZO 25,7 1027,7 48 - 585
12:54 18,8 7,2 6,4 NO 29,0 1027,7 47 - 563
12:59 19,1 7,2 19,5 OZO 27,4 1027,7 46 - 578
13:04 19,2 7,3 27,4 Oosten 27,4 1027,7 46 - 619
13:09 19,3 7,1 4,7 OZO 32,2 1027,7 45 - 626
13:14 19,4 7,5 4,7 OZO 12,9 1027,3 46 - 673
13:19 19,7 7,4 9,7 ONO 24,1 1027,3 45 - 640
13:24 19,7 7,1 9,7 OZO 20,9 1027,3 44 - 622
13:29 19,8 7,2 6,4 Oosten 30,6 1027,3 44 - 613
13:34 19,8 7,2 16,3 OZO 24,1 1027,3 44 - 598
13:39 19,8 7,8 14,3 ONO 20,9 1027,3 46 - 619
13:44 19,8 8,2 17,7 Oosten 29,0 1027,3 47 - 624
13:49 19,9 7,9 13,0 ZO 25,7 1027,3 46 - 663
13:54 19,9 7,3 14,3 ONO 33,8 1027,3 44 - 719
13:59 19,9 7,6 20,9 Oosten 30,6 1027,3 45 - 719
14:04 20,1 7,5 6,4 ZO 24,1 1027,3 44 - 714
14:09 20,2 7,6 7,9 NNO 25,7 1027,0 44 - 705
14:14 20,2 6,9 20,9 Oosten 24,1 1027,3 42 - 696
14:19 20,2 7,6 11,1 OZO 20,9 1027,0 44 - 701
14:24 20,3 7,3 16,3 ONO 20,9 1027,0 43 - 689

Download your copy of this data-set  here

Our weather-data as stored at Weather Underground. Script ontwikkeld door Jim McMurry. Aangepast voor de template door Leuven-Template.eu

U vindt ons ook hier:

Het Weer Aktueel

UK Metoffice

European Weather Network

Weather Underground

AWEKAS

Citizen Weather Observer Program (CWOP)

HAMweather, WeatherForYou, PWS Weather

Apparatuur in gebruik:

Weerstation
Davis Vantage pro 2

Weerprogramma
Meteobridge

Weercomputer
TP-Link TL-WR703N

Webleverancier
Versio

Davis Vantage pro 2

Meteobridge

TP-Link TL-WR703N

Versio